Location: Asheville, NC
(35.6000°N, 82.5500°W)
Time: 08:53:29
(UTC-05:00)

Vanguard 1 - Pass Details

Date: 09 February 2018
Orbit: 650 x 3833 km, 34.2° (Epoch: 19 February)

Event Time Altitude Azimuth Distance (km) Brightness Sun altitude
Rises 17:12:26 0° 227° (SW) 4,744 15.2 9.3°
Reaches altitude 10° 17:16:34 10° 218° (SW) 3,264 14.1 8.6°
Maximum altitude 17:22:52 30° 160° (SSE) 1,549 11.2 7.4°
Drops below altitude 10° 17:27:15 10° 98° (E) 2,226 11.4 6.6°
Sets 17:29:32 0° 87° (E) 3,025 12.0 6.2°
